Terminal Aerodrome Forecast
Issued by NWS

Home | Current Version | Previous Version | Text Only | Print | Product List | Glossary On
Versions: 1 2 3 4 5 6 7 8 9 10 11 12 13 14 15 16 17 18 19 20 21 22 23 24 25 26 27 28 29 30 31
000
FTUS41 KBUF 012000 AAB
TAFIAG
TAF AMD
KIAG 012059Z 0121/0218 07016KT 1 1/2SM -SN FEW012 OVC035
     FM012300 06014KT 1 1/2SM -SN OVC015
     FM020200 07014KT 1SM -SN OVC012
     FM020500 07019G27KT 1/2SM SN BLSN OVC012
     FM021400 35015KT 2SM -SN BLSN OVC012=

USA.gov is the U.S. government's official web portal to all federal, state and local government web resources and services.